OPS 4682 DEB, 59149

Orbit data source: Space-Track

OPS 4682 DEB, 59149 is space debris in LEO originally from a launch on Sat, 03 Apr 1965 UTC launched from the Air Force Western Test Range (AFWTR). Debris objects in space refer to the collection of defunct objects orbiting the Earth. Examples of debris include non-operational satellites, rocket bodies, and fragments generated from explosions, collisions, or faulty payload assembly.

Loading next visibility...
Identifier
59149, 1965-027HR
Orbit
LEO
Country
Flag of USUS
Related business
Manufacturer
Unknown
Mission
Spacecraft
Bus & Motor
Unknown
Mass
Unknown
Launch date (UTC)
1965-04-03 (61 years ago)
Launch vehicle
Unknown
Launch site
Air Force Western Test Range (AFWTR)
Object type
Payload
Rocket body
Debris
Shape & HBR
Unknown shape, 1.1 m
Radar Cross Section
Medium (>0.1 m² and <1 m²)

Expand to show TLE details & history
Last TLE update: 2 days ago

TLE from 2 days ago
0 OPS 4682 DEB
1 59149U 65027HR  26219.87179178  .00000016  00000-0  28027-4 0  9996
2 59149  90.2536  18.4200 0037833   4.0609 356.0814 13.01711141512378
Epoch: 2026-08-07T20:55Z
TLE epoch observation values (Epoch: 2026-08-07T20:55:22.809Z)
Latitude
-0.00003°
Longitude
108.1837°
Altitude
1,229.458 km
Speed
7.253 km/s
True Right ascension
01h 13m 40s
True Declination
0° 00' 00"
Sunlit
Object was in daylight at epoch
Visualization orbit readout
Latitude
Unknown
Longitude
Unknown
Altitude
Unknown
Speed
Unknown
Apparent Right ascension
Unknown
Apparent Declination
Unknown
Sunlit
N/A
Visualization observer readout
Local Sidereal Time
16:23:51
Azimuth
Unknown
Elevation
Unknown
Doppler factor
Unknown
Orbital elements
Apogee altitude
1,281.383 km
Perigee altitude
1,223.645 km
Semi-major axis
7,630.651 km
Eccentricity
0.00378
Inclination
90.2536°
RAAN
18.42°
Arg. of periapsis
4.0609°
True anomaly
356.05163°
Mean anomaly
356.0814°
Eccentric anomaly
356.06653°
Mean motion
3.25612 °/min
Orbital period
110.56 mins
BSTAR
0.000028027
Loading maneuver chart data...
Computing Atmospheric mass density...
Loading historical data...
Loading historical data...
Loading historical data...
Loading historical data...
Loading historical data...
Loading historical data...
Loading historical data...

Documentation

Showing up to 5 results
|